[[{"header":{"parameterUnit":"m.s-1","parameterCategory":1,"la1":30.2991,"la2":30.254,"lo1":-89.0895,"lo2":-89.0444,"dy":0.0017,"dx":0.0017,"nx":28,"ny":28,"refTime":"2025-01-18T03:00:00:Z","depth":0,"parameterNumber":2,"parameterNumberName":"U-component_of_WINDS"},"data":[0,0,0,0,0,0,0,0,0,0,0,0,0,0,0,0,0,0,0,0,0,0,0,0,0,0,0,0,0,0,0,0,0,0,0,0,0,0,0,0,0,0,0,0,0,0,0,0,0,0,0,0,0,0,0,0,0,0,-2.5412,-2.5412,0,-2.5463,-2.5464,-2.5464,-2.5432,-2.5431,-2.5429,-2.5428,-2.5481,-2.5483,-2.5486,0,0,0,0,0,0,0,0,0,0,0,0,0,-2.5285,-2.5287,-2.5411,-2.5412,-2.5413,-2.5463,-2.5464,-2.5464,-2.5433,-2.5431,-2.5429,-2.5427,-2.548,-2.5483,-2.5486,0,0,0,0,0,0,0,0,0,0,0,0,0,-2.5338,-2.5288,-2.5411,-2.5403,-2.5403,-2.5463,-2.5464,-2.5465,-2.5433,-2.5431,-2.5429,-2.5426,-2.5479,-2.5483,-2.5487,-2.5558,0,0,-2.55,-2.5502,0,0,0,0,0,0,0,0,-2.5335,-2.5343,-2.5404,-2.5404,-2.5404,-2.5439,-2.5438,-2.5496,-2.5434,-2.5422,-2.5428,-2.5425,-2.5469,-2.5474,-2.5488,-2.5561,-2.5563,-2.55,-2.5503,-2.5505,-2.5506,0,0,0,0,0,0,0,-2.5332,-2.5341,-2.5432,-2.5404,-2.5404,-2.5396,-2.5402,-2.5449,-2.5457,-2.5422,-2.542,-2.5427,-2.5468,-2.5484,-2.5489,-2.5564,-2.55,-2.5504,-2.5506,-2.5508,-2.5695,-2.5697,0,0,0,0,0,0,-2.5329,-2.5338,-2.543,-2.5433,-2.5363,-2.5401,-2.5406,-2.543,-2.5457,-2.5458,-2.5429,-2.5425,-2.5478,-2.5484,-2.5491,-2.5574,-2.5504,-2.5508,-2.5511,-2.5693,-2.5696,-2.5698,0,0,0,0,0,0,-2.5326,-2.5337,-2.5428,-2.5385,-2.5396,-2.5405,-2.5432,-2.5432,-2.5448,-2.5461,-2.5462,-2.5444,-2.5477,-2.5485,-2.5541,-2.5576,-2.551,-2.5514,-2.569,-2.5694,-2.5697,-2.5743,0,0,0,0,0,0,-2.5323,-2.5337,-2.5364,-2.5386,-2.5398,-2.5478,-2.5434,-2.5435,-2.5455,-2.5451,-2.5476,-2.5477,-2.5475,-2.5535,-2.5545,-2.558,-2.5517,-2.5687,-2.5692,-2.5696,-2.5738,-2.5748,-2.5756,0,0,0,0,0,-2.5318,-2.5375,-2.5365,-2.5377,-2.5433,-2.548,-2.5487,-2.5484,-2.5458,-2.5486,-2.5494,-2.5477,-2.5571,-2.5541,-2.5553,-2.5589,-2.5685,-2.569,-2.5696,-2.5734,-2.5746,-2.5755,0,0,0,0,0,0,-2.5357,-2.5378,-2.5367,-2.5433,-2.5455,-2.5475,-2.5509,-2.5496,-2.5526,-2.5521,-2.5515,-2.5521,-2.5579,-2.559,-2.5557,-2.5659,-2.5624,-2.5632,-2.5649,-2.566,-2.5669,-2.5664,-2.5521,0,0,0,0,0,-2.5373,-2.541,-2.5426,-2.5482,-2.5494,-2.55,-2.552,-2.5516,-2.5538,-2.5547,-2.556,-2.5582,-2.5616,-2.5639,-2.5672,-2.574,-2.5744,-2.5771,-2.578,-2.5787,-2.5793,-2.5828,-2.584,-2.5716,-2.5716,-2.5716,0,0,-2.5407,-2.5423,-2.5446,-2.5491,-2.5507,-2.5545,-2.5508,-2.5549,-2.5577,-2.5554,-2.5607,-2.5617,-2.5642,-2.5704,-2.5732,-2.5714,-2.5828,-2.5794,-2.5799,-2.5802,-2.5835,-2.5847,-2.5857,-2.572,-2.5719,-2.5719,0,0,-2.5487,-2.5503,-2.5551,-2.5569,-2.5594,-2.5597,-2.5609,-2.563,-2.5636,-2.569,-2.5672,-2.5705,-2.5765,-2.5783,-2.5799,-2.5886,-2.587,-2.5897,-2.5942,-2.5976,-2.5986,-2.5994,-2.6023,-2.6034,-2.5904,-2.5904,-2.5904,0,-2.5525,-2.5581,-2.5578,-2.562,-2.564,-2.562,-2.5668,-2.5685,-2.572,-2.5734,-2.5714,-2.5788,-2.5803,-2.5868,-2.5889,-2.5904,-2.5916,-2.5893,-2.5985,-2.5993,-2.6001,-2.6029,-2.604,-2.5907,-2.5906,-2.5906,-2.5906,0,-2.5626,-2.5666,-2.5701,-2.5735,-2.5759,-2.5804,-2.5806,-2.5831,-2.5825,-2.583,-2.5884,-2.5902,-2.5937,-2.5952,-2.5947,-2.6016,-2.6005,-2.5985,-2.5949,-2.6016,-2.6041,-2.6052,-2.5911,-2.591,-2.5909,-2.5908,0,0,-2.5731,-2.5762,-2.5775,-2.5789,-2.5816,-2.5846,-2.589,-2.5924,-2.5944,-2.597,-2.6005,-2.6056,-2.6038,-2.6057,-2.6054,-2.6084,-2.6149,-2.6061,-2.6061,-2.6075,-2.6225,-2.6237,-2.625,-2.614,-2.6142,-2.6143,-2.6222,0,-2.5811,-2.5888,-2.5886,-2.5957,-2.5992,-2.5974,-2.6013,-2.6033,-2.6039,-2.607,-2.6077,-2.6112,-2.6086,-2.6097,-2.6127,-2.6135,-2.6179,-2.613,-2.6172,-2.6173,-2.6164,-2.6264,-2.6278,-2.6351,-2.6232,-2.6234,-2.6235,0,-2.5915,-2.5942,-2.6017,-2.6037,-2.6052,-2.6086,-2.6117,-2.6147,-2.6169,-2.6171,-2.6192,-2.6184,-2.6228,-2.6192,-2.6252,-2.6218,-2.6236,-2.6242,-2.6245,-2.6247,-2.6207,-2.6266,-2.6374,-2.6384,-2.6251,-2.625,-2.6249,0,-2.5981,-2.6037,-2.6088,-2.6102,-2.6127,-2.6151,-2.6163,-2.6183,-2.6204,-2.6231,-2.6243,-2.6275,-2.6292,-2.6317,-2.6317,-2.6291,-2.6376,-2.6341,-2.6378,-2.6378,-2.6395,-2.6394,-2.6505,-2.641,-2.641,-2.641,-2.6409,0,-2.6069,-2.6115,-2.6118,-2.615,-2.62,-2.6197,-2.6247,-2.6257,-2.6275,-2.6307,-2.6295,-2.6325,-2.6324,-2.6355,-2.6355,-2.6403,-2.6412,-2.6414,-2.6413,-2.6414,-2.6413,-2.6423,-2.6417,-2.6413,-2.6412,-2.6411,-2.6411,0,-2.6151,-2.6155,-2.621,-2.6229,-2.6235,-2.6271,-2.6288,-2.6317,-2.6323,-2.6364,-2.6373,-2.6381,-2.6417,-2.642,-2.6461,-2.6461,-2.6519,-2.6514,-2.6511,-2.651,-2.6546,-2.6541,-2.6666,-2.6681,-2.6578,-2.6579,-2.658,0,-2.6206,-2.624,-2.6264,-2.6284,-2.6297,-2.6331,-2.6352,-2.6351,-2.6372,-2.64,-2.6426,-2.646,-2.6488,-2.6545,-2.6554,-2.6586,-2.658,-2.6621,-2.6584,-2.6583,-2.6578,-2.6575,-2.6577,-2.6628,-2.6629,-2.663,-2.6631,0,-2.6302,-2.6302,-2.6332,-2.6363,-2.6388,-2.6413,-2.6435,-2.6453,-2.6454,-2.6479,-2.6515,-2.6537,-2.6579,-2.6612,-2.6643,-2.6655,-2.6642,-2.6643,-2.6652,-2.6652,-2.6648,-2.6649,-2.6529,-2.6639,-2.6638,-2.6638,-2.6637,-2.6637,-2.637,-2.64,-2.642,-2.6454,-2.6471,-2.6492,-2.6521,-2.6529,-2.656,-2.6593,-2.6591,-2.6631,-2.6651,-2.6691,-2.6705,-2.6735,-2.6721,-2.6736,-2.6739,-2.6742,-2.6745,-2.6645,-2.6741,-2.6741,-2.6741,-2.6741,-2.6741,0,-2.6464,-2.6476,-2.6508,-2.6539,-2.6566,-2.6553,-2.6577,-2.66,-2.6635,-2.6655,-2.6682,-2.6723,-2.6756,-2.6768,-2.68,-2.6821,-2.6817,-2.683,-2.6827,-2.6829,-2.6757,-2.6744,-2.6833,-2.6833,-2.6833,-2.6833,-2.6833,-2.6833,-2.6516,-2.6564,-2.6567,-2.6623,-2.6635,-2.6674,-2.6689,-2.6708,-2.6724,-2.677,-2.6797,-2.6805,-2.6822,-2.6854,-2.6883,-2.6886,-2.6897,-2.6912,-2.6912,-2.6844,-2.6835,-2.6826,-2.6813,-2.6915,-2.6915,-2.6981,-2.6982,-2.6983]},{"header":{"parameterUnit":"m.s-1","parameterCategory":1,"la1":30.2991,"la2":30.254,"lo1":-89.0895,"lo2":-89.0444,"dy":0.0017,"dx":0.0017,"nx":28,"ny":28,"refTime":"2025-01-18T03:00:00:Z","depth":0,"parameterNumber":3,"parameterNumberName":"V-component_of_WINDS"},"data":[0,0,0,0,0,0,0,0,0,0,0,0,0,0,0,0,0,0,0,0,0,0,0,0,0,0,0,0,0,0,0,0,0,0,0,0,0,0,0,0,0,0,0,0,0,0,0,0,0,0,0,0,0,0,0,0,0,0,0.7525,0.7526,0,0.7614,0.7615,0.7616,0.765,0.765,0.765,0.765,0.7742,0.7745,0.7748,0,0,0,0,0,0,0,0,0,0,0,0,0,0.739,0.7392,0.7525,0.7526,0.7528,0.7614,0.7615,0.7616,0.765,0.765,0.765,0.7649,0.7741,0.7745,0.7748,0,0,0,0,0,0,0,0,0,0,0,0,0,0.7461,0.7393,0.7525,0.7555,0.7558,0.7614,0.7615,0.7617,0.765,0.765,0.765,0.7649,0.774,0.7744,0.7748,0.7781,0,0,0.7761,0.7763,0,0,0,0,0,0,0,0,0.7457,0.7466,0.7549,0.7553,0.7557,0.7621,0.7602,0.7672,0.7651,0.7616,0.765,0.7649,0.7702,0.771,0.7727,0.7786,0.779,0.7761,0.7764,0.7765,0.7767,0,0,0,0,0,0,0,0.7452,0.7462,0.7561,0.7551,0.7555,0.7565,0.7575,0.7615,0.766,0.7619,0.7621,0.7631,0.7704,0.7723,0.773,0.7791,0.7761,0.7765,0.7767,0.7769,0.7886,0.7886,0,0,0,0,0,0,0.7441,0.7458,0.7558,0.7563,0.7505,0.7568,0.7579,0.7601,0.766,0.7668,0.7631,0.7632,0.7716,0.7725,0.7733,0.7778,0.7765,0.7769,0.7772,0.7885,0.7886,0.7887,0,0,0,0,0,0,0.7438,0.745,0.7554,0.7511,0.7525,0.7571,0.7595,0.7603,0.7621,0.7669,0.7678,0.7642,0.7716,0.7727,0.777,0.7782,0.7771,0.7775,0.7884,0.7885,0.7886,0.7867,0,0,0,0,0,0,0.7434,0.7449,0.746,0.7511,0.7527,0.7588,0.7596,0.7605,0.7628,0.763,0.7682,0.769,0.7717,0.7764,0.7774,0.7787,0.7778,0.7883,0.7885,0.7886,0.7867,0.7867,0.7867,0,0,0,0,0,0.7429,0.7451,0.7461,0.7472,0.7543,0.7589,0.7598,0.7628,0.7629,0.7642,0.7674,0.7688,0.7779,0.7768,0.778,0.7794,0.7883,0.7884,0.7886,0.7866,0.7867,0.7867,0,0,0,0,0,0,0.74,0.7458,0.7469,0.7508,0.7543,0.7594,0.7611,0.7627,0.7663,0.7664,0.7701,0.7712,0.7753,0.7778,0.7764,0.7831,0.7832,0.7836,0.7813,0.7814,0.7814,0.7808,0.7781,0,0,0,0,0,0.7397,0.7429,0.7478,0.7508,0.7525,0.7565,0.7586,0.7607,0.7645,0.766,0.7695,0.7732,0.777,0.7793,0.783,0.7871,0.7884,0.7887,0.7887,0.7887,0.789,0.7917,0.792,0.7892,0.7892,0.7892,0,0,0.7393,0.7429,0.7446,0.7503,0.7532,0.7566,0.7577,0.7611,0.7637,0.7666,0.7708,0.7735,0.778,0.7823,0.7843,0.7845,0.7902,0.7889,0.7889,0.7892,0.7919,0.7922,0.7924,0.7893,0.7892,0.7892,0,0,0.7403,0.7432,0.7461,0.7491,0.7537,0.7564,0.7571,0.7621,0.764,0.7684,0.7707,0.7739,0.7802,0.7834,0.7858,0.7884,0.79,0.7895,0.7897,0.7923,0.7925,0.7928,0.7939,0.7943,0.7898,0.7898,0.7898,0,0.7392,0.7442,0.7474,0.7508,0.7533,0.7561,0.7593,0.7621,0.7676,0.7693,0.7695,0.7776,0.7808,0.786,0.7867,0.7885,0.7896,0.7889,0.7922,0.7925,0.7927,0.7939,0.7943,0.7897,0.7897,0.7898,0.7898,0,0.7428,0.7463,0.7481,0.7534,0.7562,0.7594,0.7633,0.7657,0.7677,0.7705,0.7751,0.779,0.7837,0.7851,0.787,0.7907,0.7907,0.7915,0.7916,0.7929,0.7941,0.7945,0.7896,0.7897,0.7897,0.7897,0,0,0.7419,0.7492,0.7498,0.7525,0.7578,0.7607,0.7642,0.7688,0.7709,0.7747,0.7779,0.7834,0.7842,0.787,0.7893,0.7915,0.7937,0.7921,0.7923,0.7924,0.7985,0.7979,0.7984,0.7948,0.7949,0.795,0.7982,0,0.7437,0.75,0.7532,0.7582,0.7616,0.7645,0.7676,0.7714,0.7742,0.7777,0.7808,0.7847,0.7854,0.7871,0.7895,0.7929,0.795,0.7928,0.798,0.7982,0.7969,0.799,0.7983,0.8011,0.7986,0.7987,0.7988,0,0.7466,0.7505,0.7558,0.7611,0.7627,0.7654,0.7701,0.7733,0.7778,0.7797,0.783,0.7853,0.7894,0.7893,0.7951,0.7935,0.7959,0.798,0.7982,0.7988,0.7986,0.7998,0.802,0.8025,0.7995,0.7994,0.7994,0,0.7456,0.7522,0.7563,0.7585,0.7647,0.7666,0.7693,0.7738,0.7765,0.7806,0.7825,0.787,0.7895,0.7931,0.7967,0.7963,0.8023,0.8024,0.8042,0.8041,0.8053,0.8052,0.8081,0.8067,0.8067,0.8067,0.8067,0,0.7473,0.7505,0.756,0.7586,0.7624,0.7661,0.7699,0.7728,0.7768,0.7802,0.783,0.7861,0.7907,0.7944,0.7973,0.8019,0.8029,0.8048,0.8055,0.8046,0.8043,0.8062,0.8062,0.8068,0.8068,0.8067,0.8067,0,0.7468,0.7506,0.7554,0.761,0.7626,0.7651,0.7701,0.7728,0.7759,0.7801,0.7813,0.7862,0.7908,0.7948,0.8008,0.8028,0.8076,0.8084,0.8061,0.8065,0.8081,0.808,0.8123,0.8132,0.8111,0.8111,0.8111,0,0.7477,0.7503,0.7563,0.7587,0.7614,0.7653,0.7681,0.7721,0.7749,0.7805,0.7826,0.7874,0.7915,0.7988,0.803,0.8078,0.8088,0.81,0.8095,0.8086,0.8091,0.8089,0.8093,0.81,0.81,0.81,0.81,0,0.7489,0.7507,0.7546,0.7593,0.7626,0.7665,0.7705,0.7724,0.7771,0.7803,0.785,0.7882,0.7946,0.7994,0.8047,0.8078,0.8098,0.8102,0.8109,0.81,0.8086,0.8096,0.8063,0.8101,0.8101,0.8101,0.8101,0.8101,0.7492,0.7518,0.7565,0.7609,0.7643,0.7681,0.771,0.7746,0.7786,0.784,0.7862,0.7912,0.796,0.8033,0.8064,0.8105,0.8108,0.8117,0.812,0.8122,0.8122,0.8079,0.8115,0.8115,0.8115,0.8115,0.8115,0,0.7507,0.754,0.758,0.7635,0.7671,0.7687,0.7733,0.7762,0.7805,0.7849,0.7889,0.7946,0.7995,0.8042,0.8093,0.8117,0.8128,0.813,0.8129,0.8136,0.8115,0.8105,0.812,0.812,0.812,0.812,0.812,0.812,0.7519,0.7564,0.7589,0.7653,0.7686,0.7734,0.776,0.7796,0.7831,0.7893,0.7934,0.7964,0.801,0.8066,0.8112,0.8125,0.8144,0.8143,0.8158,0.8138,0.8137,0.8136,0.8126,0.8146,0.8146,0.8176,0.8176,0.8176]}]]